Location: ?????????
(41.2393°N, 22.9479°E)
Time: 05:40:39
(UTC+00:00)

Cosmos 2369 Rocket - Pass Details

Date: 17 November 2025
Orbit: 826 x 853 km, 71.0° (Epoch: 09 December)

Event Time Altitude Azimuth Distance (km) Brightness Sun altitude
Rises 16:18:26 0° 149° (SSE) 3,354 5.1 -13.4°
Reaches altitude 10° 16:22:19 10° 122° (ESE) 2,431 4.2 -14.1°
Enters shadow 16:22:35 11° 119° (ESE) 2,392 4.1 -14.2°
